Location: Lafig�re
(44.4503°N, 4.0357°E)
Time: 22:52:28
(UTC+00:00)

Tiros 1 - Pass Details

Date: 21 January 2021
Orbit: 630 x 664 km, 48.4° (Epoch: 06 March)

Event Time Altitude Azimuth Distance (km) Brightness Sun altitude
Rises 18:17:08 0° 221° (SW) 2,919 11.4 -17.5°
Reaches altitude 10° 18:19:33 10° 215° (SW) 2,009 10.3 -17.9°
Maximum altitude 18:23:52 41° 145° (SE) 918 7.7 -18.7°
Enters shadow 18:24:52 36° 113° (ESE) 1,007 7.7 -18.8°
